Sauk Centre, MN

8:12 AM CST on December 07, 2019 (GMT -0600)
Sauk Centre

Weather History for KD39 - September, 2019

Change the Weather History Date:

Monday, September 9, 2019

  Actual Average (WUND) Record (WUND)
Temperature  
Mean Temperature 60 °F -  
Max Temperature 66 °F - - (-1)
Min Temperature 54 °F - - (-1)
Degree Days  
Heating Degree Days 6    
Growing Degree Days 10 (Base 50)    
Moisture  
Dew Point 57 °F    
Average Humidity 98    
Maximum Humidity 100    
Minimum Humidity 91    
Precipitation  
Precipitation 1.18 in - - ()
Sea Level Pressure  
Sea Level Pressure 29.94 in    
Wind  
Wind Speed 9 mph ()    
Max Wind Speed 18 mph    
Max Gust Speed 30 mph    
Visibility 4.7 miles    
Events Rain , Thunderstorm    
Averages and records for this station are not official NWS values.
T = Trace of Precipitation, MM = Missing Value Source: Averaged Metar Reports

Daily Weather History Graph

Daily Weather History Graph

Search for Another Location

Airport or City:

Astronomy

Sep. 09, 2019 Rise Set
Actual Time 6:50 AM CDT 7:42 PM CDT
Civil Twilight 6:20 AM CDT 8:12 PM CDT
Nautical Twilight 5:44 AM CDT 8:48 PM CDT
Astronomical Twilight 5:06 AM CDT 9:26 PM CDT
Moon 5:53 PM CDT (9/9) 2:07 AM CDT (9/9)
Length of Visible Light 13h 52m
Length of Day
12h 52m
Waxing Gibbous, 83% of the Moon is Illuminated
Sep 9
Waxing Gibbous
Sep 13
Full
Sep 21
Last Quarter
Sep 28
New
Oct 5
First Quarter

Hourly Weather History & Observations

Time (CDT) Temp. Dew Point Humidity Pressure Visibility Wind Dir Wind Speed Gust Speed Precip Events Conditions
12:15 AM 55.8 °F 53.1 °F 91% 30.12 in 10.0 mi ESE 6.9 mph - N/A   Overcast
12:16 AM 55.8 °F 53.1 °F 91% 30.12 in 10.0 mi ESE 5.8 mph - N/A   Overcast
12:35 AM 55.8 °F 53.2 °F 91% 30.12 in 10.0 mi East 6.9 mph - N/A   Overcast
12:36 AM 55.8 °F 53.2 °F 91% 30.12 in 10.0 mi East 6.9 mph - N/A   Overcast
12:58 AM 55.6 °F 53.4 °F 92% 30.12 in 10.0 mi ESE 8.1 mph - N/A   Overcast
1:16 AM 55.4 °F 53.6 °F 94% 30.12 in 7.0 mi East 6.9 mph - N/A   Overcast
1:35 AM 55.2 °F 53.8 °F 95% 30.12 in 4.0 mi East 6.9 mph - N/A   Overcast
1:36 AM 55.2 °F 53.8 °F 95% 30.12 in 4.0 mi East 5.8 mph - N/A   Overcast
1:55 AM 55.0 °F 54.1 °F 97% 30.11 in 5.0 mi East 5.8 mph - N/A   Overcast
1:56 AM 55.0 °F 54.0 °F 96% 30.11 in 5.0 mi East 5.8 mph - N/A   Overcast
2:15 AM 54.9 °F 54.1 °F 97% 30.11 in 7.0 mi East 6.9 mph - N/A   Overcast
2:37 AM 54.9 °F 54.1 °F 97% 30.10 in 10.0 mi East 6.9 mph - N/A   Overcast
2:56 AM 54.9 °F 54.1 °F 97% 30.10 in 4.0 mi East 8.1 mph - N/A   Overcast
3:15 AM 54.7 °F 54.1 °F 98% 30.09 in 3.0 mi East 6.9 mph - N/A   Overcast
3:16 AM 54.7 °F 54.1 °F 98% 30.09 in 3.0 mi East 6.9 mph - N/A   Overcast
3:35 AM 54.7 °F 54.0 °F 97% 30.09 in 2.5 mi East 5.8 mph - N/A   Overcast
3:36 AM 54.7 °F 54.0 °F 97% 30.09 in 2.5 mi East 5.8 mph - N/A   Overcast
3:58 AM 54.5 °F 54.0 °F 98% 30.09 in 3.0 mi East 6.9 mph - N/A   Overcast
4:17 AM 54.5 °F 54.0 °F 98% 30.09 in 2.5 mi East 8.1 mph - 0.01 in Rain Rain
4:35 AM 54.5 °F 54.1 °F 99% 30.07 in 2.5 mi East 9.2 mph - 0.01 in Rain Rain
4:36 AM 54.5 °F 54.1 °F 99% 30.07 in 2.5 mi East 8.1 mph - 0.01 in Rain Rain
4:55 AM 54.5 °F 54.0 °F 98% 30.06 in 7.0 mi East 10.4 mph - 0.01 in   Overcast
4:56 AM 54.5 °F 54.0 °F 98% 30.06 in 7.0 mi East 10.4 mph - 0.01 in   Overcast
5:15 AM 54.5 °F 54.0 °F 98% 30.07 in 10.0 mi East 6.9 mph - N/A   Overcast
5:37 AM 54.5 °F 54.0 °F 98% 30.07 in 10.0 mi ESE 9.2 mph - N/A   Overcast
5:55 AM 54.5 °F 54.0 °F 98% 30.06 in 10.0 mi East 8.1 mph - N/A   Overcast
6:15 AM 54.7 °F 54.0 °F 97% 30.06 in 7.0 mi East 9.2 mph - N/A   Overcast
6:16 AM 54.7 °F 54.0 °F 97% 30.06 in 7.0 mi East 9.2 mph - N/A   Overcast
6:35 AM 54.5 °F 54.0 °F 98% 30.05 in 3.0 mi East 11.5 mph - N/A   Overcast
6:36 AM 54.7 °F 54.1 °F 98% 30.05 in 2.5 mi East 11.5 mph - N/A   Overcast
6:58 AM 54.5 °F 54.1 °F 99% 30.05 in 2.0 mi ESE 11.5 mph - N/A   Overcast
7:16 AM 54.7 °F 54.5 °F 99% 30.05 in 1.2 mi ESE 11.5 mph 16.1 mph N/A   Overcast
7:35 AM 54.7 °F 54.5 °F 99% 30.05 in 2.0 mi East 10.4 mph 17.3 mph N/A   Overcast
7:55 AM 54.9 °F 54.5 °F 99% 30.05 in 3.0 mi East 9.2 mph 16.1 mph N/A   Overcast
7:56 AM 54.9 °F 54.5 °F 99% 30.05 in 3.0 mi ESE 8.1 mph 16.1 mph N/A   Overcast
8:15 AM 54.9 °F 54.5 °F 99% 30.04 in 2.0 mi East 11.5 mph - N/A   Overcast
8:20 AM 54.9 °F 54.5 °F 99% 30.04 in 1.8 mi East 11.5 mph - N/A   Overcast
8:37 AM 55.0 °F 54.7 °F 99% 30.03 in 1.5 mi East 10.4 mph - N/A   Overcast
8:56 AM 55.4 °F 54.9 °F 98% 30.02 in 1.5 mi East 11.5 mph 17.3 mph N/A   Overcast
9:15 AM 55.4 °F 54.9 °F 98% 30.01 in 1.2 mi East 13.8 mph 17.3 mph N/A   Overcast
9:16 AM 55.4 °F 55.0 °F 99% 30.01 in 1.2 mi East 13.8 mph 17.3 mph N/A   Overcast
9:35 AM 55.4 °F 55.0 °F 99% 30.01 in 1.2 mi East 11.5 mph - N/A   Overcast
9:36 AM 55.4 °F 55.0 °F 99% 30.01 in 1.2 mi East 11.5 mph 16.1 mph N/A   Overcast
9:55 AM 55.6 °F 55.4 °F 99% 30.00 in 1.0 mi East 11.5 mph 21.9 mph N/A   Overcast
9:58 AM 55.6 °F 55.4 °F 99% 30.00 in 1.0 mi East 11.5 mph 21.9 mph N/A   Overcast
10:17 AM 55.6 °F 55.4 °F 99% 29.99 in 1.5 mi East 15.0 mph 20.7 mph N/A Thunderstorm Overcast
10:36 AM 55.8 °F 55.6 °F 99% 29.98 in 2.5 mi East 13.8 mph 24.2 mph N/A   Overcast
10:55 AM 55.9 °F 55.8 °F 99% 29.97 in 2.0 mi East 17.3 mph 20.7 mph N/A   Overcast
10:56 AM 55.9 °F 55.8 °F 99% 29.97 in 2.0 mi East 16.1 mph 20.7 mph N/A   Overcast
11:15 AM 55.9 °F 55.8 °F 99% 29.99 in 3.0 mi East 10.4 mph 20.7 mph N/A   Overcast
11:55 AM 56.3 °F 55.8 °F 98% 29.97 in 2.0 mi ESE 15.0 mph - N/A Thunderstorm Overcast
12:15 PM 56.3 °F 55.9 °F 99% 29.98 in 1.2 mi ESE 11.5 mph - 0.02 in Rain , Thunderstorm Rain
12:16 PM 56.3 °F 55.9 °F 99% 29.98 in 1.2 mi ESE 11.5 mph - 0.02 in Rain , Thunderstorm Rain
12:35 PM 56.3 °F 55.8 °F 98% 29.93 in 3.0 mi East 15.0 mph 18.4 mph 0.11 in Rain Heavy Rain
12:36 PM 56.3 °F 55.8 °F 98% 29.93 in 4.0 mi East 13.8 mph 18.4 mph 0.11 in Rain Heavy Rain
12:57 PM 56.3 °F 55.6 °F 97% 29.91 in 7.0 mi East 12.7 mph 21.9 mph 0.17 in Rain Light Rain
1:15 PM 56.5 °F 55.8 °F 97% 29.91 in 10.0 mi ESE 11.5 mph 19.6 mph N/A Rain Light Rain
1:35 PM 57.2 °F 56.3 °F 97% 29.90 in 10.0 mi ESE 18.4 mph 29.9 mph N/A   Overcast
1:36 PM 57.2 °F 56.3 °F 97% 29.90 in 10.0 mi ESE 18.4 mph 29.9 mph N/A   Overcast
1:55 PM 57.4 °F 56.3 °F 96% 29.91 in 10.0 mi ESE 18.4 mph 24.2 mph N/A Thunderstorm Overcast
1:59 PM 57.4 °F 56.3 °F 96% 29.91 in 10.0 mi ESE 16.1 mph 24.2 mph N/A Rain , Thunderstorm Rain
2:17 PM 57.2 °F 56.3 °F 97% 29.90 in 1.8 mi ESE 10.4 mph 18.4 mph 0.15 in   Overcast
2:35 PM 57.0 °F 56.3 °F 97% 29.91 in 5.0 mi SE 12.7 mph 23.0 mph 0.25 in Rain Heavy Rain
2:56 PM 57.2 °F 56.3 °F 97% 29.90 in 3.0 mi ESE 10.4 mph - 0.37 in Rain Heavy Rain
3:15 PM 57.2 °F 56.3 °F 97% 29.89 in 3.0 mi East 12.7 mph 16.1 mph 0.09 in Rain Rain
3:17 PM 57.2 °F 56.3 °F 97% 29.89 in 5.0 mi ESE 11.5 mph 16.1 mph 0.10 in Rain Rain
3:35 PM 57.2 °F 56.7 °F 98% 29.86 in 5.0 mi East 11.5 mph - 0.14 in Rain Rain
3:40 PM 57.2 °F 56.7 °F 98% 29.86 in 5.0 mi East 11.5 mph - 0.15 in Rain Light Rain
3:57 PM 57.4 °F 56.7 °F 97% 29.85 in 10.0 mi East 12.7 mph - 0.15 in Rain Light Rain
4:15 PM 57.4 °F 56.8 °F 98% 29.85 in 10.0 mi ESE 9.2 mph 17.3 mph N/A   Overcast
4:35 PM 57.7 °F 57.2 °F 98% 29.84 in 10.0 mi ESE 11.5 mph 17.3 mph 0.01 in Rain Light Rain
4:36 PM 57.7 °F 57.2 °F 98% 29.84 in 10.0 mi ESE 12.7 mph 17.3 mph 0.01 in Rain Light Rain
4:55 PM 58.1 °F 57.4 °F 97% 29.82 in 5.0 mi ESE 12.7 mph - 0.04 in Rain Rain
4:56 PM 58.1 °F 57.4 °F 97% 29.82 in 5.0 mi ESE 11.5 mph - 0.04 in Rain Rain
5:18 PM 58.1 °F 57.6 °F 98% 29.81 in 2.0 mi ESE 12.7 mph - 0.16 in Rain Heavy Rain
5:36 PM 58.1 °F 57.6 °F 98% 29.80 in 5.0 mi ESE 9.2 mph 16.1 mph 0.24 in Rain Rain
5:55 PM 58.5 °F 58.1 °F 99% 29.80 in 1.5 mi SE 6.9 mph - 0.41 in Rain Heavy Rain
5:56 PM 58.5 °F 58.1 °F 99% 29.80 in 1.5 mi SE 6.9 mph - 0.41 in Rain Heavy Rain
6:15 PM 59.0 °F 58.5 °F 98% 29.79 in 10.0 mi SE 11.5 mph 16.1 mph N/A Rain Light Rain
6:16 PM 59.0 °F 58.5 °F 98% 29.79 in 10.0 mi SE 10.4 mph - N/A Rain Light Rain
6:35 PM 59.2 °F 59.0 °F 99% 29.79 in 10.0 mi ESE 10.4 mph - 0.01 in Rain Light Rain
6:36 PM 59.2 °F 59.0 °F 99% 29.79 in 10.0 mi ESE 11.5 mph - 0.01 in Rain Light Rain
6:58 PM 59.9 °F 59.4 °F 98% 29.78 in 5.0 mi SE 9.2 mph - 0.03 in Rain Light Rain
7:17 PM 59.9 °F 59.5 °F 99% 29.78 in 7.0 mi SE 11.5 mph - N/A   Light Drizzle
7:35 PM 60.4 °F 60.1 °F 99% 29.78 in 7.0 mi SE 12.7 mph - N/A   Overcast
7:36 PM 60.4 °F 60.1 °F 99% 29.78 in 7.0 mi SE 12.7 mph - N/A   Overcast
7:55 PM 61.0 °F 60.8 °F 99% 29.78 in 4.0 mi SE 12.7 mph 19.6 mph N/A   Overcast
7:56 PM 61.0 °F 60.8 °F 99% 29.78 in 3.0 mi SE 10.4 mph 19.6 mph N/A   Overcast
8:15 PM 61.7 °F 61.5 °F 99% 29.78 in 2.5 mi SSE 9.2 mph - N/A   Overcast
8:38 PM 62.6 °F 62.6 °F 100% 29.77 in 2.0 mi SSE 12.7 mph 17.3 mph N/A   Overcast
8:55 PM 63.0 °F 62.8 °F 99% 29.77 in 2.5 mi SSE 11.5 mph 18.4 mph N/A   Overcast
9:15 PM 63.5 °F 63.3 °F 99% 29.77 in 2.5 mi SSE 11.5 mph - N/A   Overcast
9:35 PM 63.9 °F 63.7 °F 99% 29.77 in 2.5 mi SSE 10.4 mph - N/A   Overcast
9:36 PM 63.9 °F 63.7 °F 99% 29.77 in 2.5 mi SSE 9.2 mph - N/A   Overcast
9:59 PM 64.0 °F 63.9 °F 99% 29.76 in 2.0 mi SSE 8.1 mph - N/A   Overcast
10:16 PM 64.4 °F 64.2 °F 99% 29.77 in 2.0 mi South 6.9 mph - N/A   Overcast
10:35 PM 64.6 °F 64.4 °F 99% 29.76 in 2.0 mi SSE 6.9 mph - N/A   Overcast
10:36 PM 64.6 °F 64.4 °F 99% 29.76 in 2.0 mi SSE 6.9 mph - N/A   Overcast
10:55 PM 64.9 °F 64.8 °F 99% 29.75 in 1.5 mi SE 8.1 mph - N/A   Overcast
10:56 PM 64.9 °F 64.8 °F 99% 29.75 in 1.5 mi SSE 9.2 mph - N/A   Overcast
11:15 PM 65.7 °F 65.5 °F 99% 29.75 in 2.5 mi SSE 8.1 mph - N/A   Overcast
11:19 PM 65.7 °F 65.5 °F 99% 29.75 in 2.5 mi SE 5.8 mph - N/A Thunderstorm Overcast
11:38 PM 65.8 °F 65.7 °F 99% 29.75 in 2.5 mi SSE 6.9 mph - N/A Thunderstorm Overcast
11:56 PM 66.9 °F 66.7 °F 99% 29.78 in 10.0 mi West 9.2 mph 17.3 mph N/A Thunderstorm Overcast